UAL403 KDEN-KSLC

Flight info

Callsign UAL403
Flight time 0h 53m
Altitude 27000
Route KDEN TAVRN WERNR GLENO BEAR5 BYI OGD OKKHO KSLC
Aircraft A32N/M-SDE2E3FGHIJ1RWXYZ/LB1

Departure

Time 2026-05-05 21:14
Airport Denver International Airport (KDEN)

Arrival

Time 2026-05-05 22:07
Airport Salt Lake City International Airport (KSLC)
Time Latitude Longitude Altitude Speed Heading
2026-05-05 20:47 39.85944 -104.66656 5388 ft 0 kts 181°
2026-05-05 20:49 39.85957 -104.66655 5386 ft 0 kts 181°
2026-05-05 20:50 39.85964 -104.66655 5384 ft 0 kts 180°
2026-05-05 20:51 39.85965 -104.66656 5387 ft 1 kts 167°
2026-05-05 20:51 39.85966 -104.66657 5386 ft 0 kts 154°
2026-05-05 20:51 39.85967 -104.66657 5386 ft 0 kts 145°
2026-05-05 20:51 39.85975 -104.66671 5384 ft 2 kts 86°
2026-05-05 20:54 39.86005 -104.66607 5390 ft 11 kts 33°
2026-05-05 20:54 39.86068 -104.66634 5388 ft 12 kts 311°
2026-05-05 20:54 39.86100 -104.66741 5386 ft 14 kts 281°
2026-05-05 20:55 39.86106 -104.66880 5383 ft 16 kts 269°
2026-05-05 20:55 39.86101 -104.67031 5381 ft 17 kts 268°
2026-05-05 20:55 39.86090 -104.67184 5381 ft 17 kts 260°
2026-05-05 20:55 39.86065 -104.67328 5373 ft 16 kts 257°
2026-05-05 20:56 39.86069 -104.67470 5378 ft 16 kts 277°
2026-05-05 20:56 39.86070 -104.67614 5381 ft 15 kts 266°
2026-05-05 20:56 39.86065 -104.67749 5383 ft 14 kts 271°
2026-05-05 20:56 39.86069 -104.67870 5385 ft 13 kts 267°
2026-05-05 20:57 39.86065 -104.67976 5387 ft 11 kts 270°
2026-05-05 20:57 39.86066 -104.68065 5389 ft 11 kts 272°
2026-05-05 20:57 39.86058 -104.68165 5390 ft 11 kts 250°
2026-05-05 20:57 39.86028 -104.68250 5390 ft 10 kts 255°
2026-05-05 20:58 39.86032 -104.68311 5391 ft 0 kts 277°
2026-05-05 20:58 39.86032 -104.68313 5391 ft 1 kts 277°
2026-05-05 20:58 39.86033 -104.68324 5391 ft 6 kts 277°
2026-05-05 20:58 39.86034 -104.68467 5389 ft 14 kts 258°
2026-05-05 20:59 39.85955 -104.68511 5389 ft 15 kts 179°
2026-05-05 20:59 39.85840 -104.68507 5384 ft 18 kts 177°
2026-05-05 20:59 39.85705 -104.68509 5377 ft 20 kts 181°
2026-05-05 20:59 39.85582 -104.68508 5377 ft 17 kts 178°
2026-05-05 21:00 39.85467 -104.68507 5376 ft 17 kts 188°
2026-05-05 21:00 39.85349 -104.68525 5375 ft 17 kts 181°
2026-05-05 21:00 39.85232 -104.68518 5377 ft 16 kts 174°
2026-05-05 21:00 39.85117 -104.68517 5375 ft 17 kts 207°
2026-05-05 21:01 39.85015 -104.68621 5371 ft 20 kts 217°
2026-05-05 21:01 39.84903 -104.68752 5363 ft 23 kts 226°
2026-05-05 21:01 39.84780 -104.68901 5358 ft 25 kts 221°
2026-05-05 21:01 39.84646 -104.69047 5358 ft 25 kts 219°
2026-05-05 21:02 39.84522 -104.69189 5363 ft 22 kts 223°
2026-05-05 21:02 39.84413 -104.69315 5367 ft 19 kts 221°
2026-05-05 21:02 39.84323 -104.69418 5371 ft 15 kts 220°
2026-05-05 21:02 39.84251 -104.69513 5369 ft 14 kts 236°
2026-05-05 21:03 39.84240 -104.69624 5370 ft 11 kts 272°
2026-05-05 21:03 39.84242 -104.69709 5373 ft 8 kts 271°
2026-05-05 21:03 39.84242 -104.69715 5373 ft 0 kts 271°
2026-05-05 21:07 39.84240 -104.69848 5374 ft 16 kts 268°
2026-05-05 21:07 39.84242 -104.69995 5373 ft 16 kts 270°
2026-05-05 21:07 39.84241 -104.70141 5371 ft 15 kts 268°
2026-05-05 21:07 39.84241 -104.70262 5374 ft 12 kts 271°
2026-05-05 21:08 39.84242 -104.70357 5374 ft 10 kts 270°
2026-05-05 21:08 39.84242 -104.70441 5373 ft 10 kts 272°
2026-05-05 21:08 39.84248 -104.70572 5370 ft 19 kts 272°
2026-05-05 21:08 39.84249 -104.70763 5376 ft 21 kts 266°
2026-05-05 21:09 39.84251 -104.70980 5382 ft 29 kts 271°
2026-05-05 21:09 39.84248 -104.71222 5389 ft 24 kts 275°
2026-05-05 21:09 39.84247 -104.71421 5390 ft 21 kts 266°
2026-05-05 21:09 39.84252 -104.71609 5390 ft 20 kts 269°
2026-05-05 21:10 39.84254 -104.71771 5392 ft 16 kts 275°
2026-05-05 21:10 39.84255 -104.71916 5390 ft 16 kts 268°
2026-05-05 21:10 39.84255 -104.72063 5388 ft 16 kts 272°
2026-05-05 21:10 39.84256 -104.72189 5390 ft 12 kts 270°
2026-05-05 21:11 39.84260 -104.72312 5392 ft 20 kts 273°
2026-05-05 21:11 39.84263 -104.72533 5392 ft 16 kts 268°
2026-05-05 21:11 39.84257 -104.72627 5395 ft 5 kts 250°
2026-05-05 21:11 39.84247 -104.72640 5391 ft 0 kts 214°
2026-05-05 21:12 39.84230 -104.72649 5388 ft 6 kts 197°
2026-05-05 21:12 39.84229 -104.72649 5389 ft 0 kts 197°
2026-05-05 21:12 39.84216 -104.72652 5397 ft 13 kts 190°
2026-05-05 21:12 39.84125 -104.72641 5392 ft 12 kts 152°
2026-05-05 21:13 39.84096 -104.72560 5389 ft 10 kts 94°
2026-05-05 21:13 39.84095 -104.72550 5391 ft 0 kts 93°
2026-05-05 21:13 39.84092 -104.72366 5386 ft 60 kts 90°
2026-05-05 21:14 39.84092 -104.71436 5390 ft 147 kts 91°
2026-05-05 21:14 39.84084 -104.69846 5514 ft 197 kts 85°
2026-05-05 21:14 39.84685 -104.68097 5683 ft 229 kts 48°
2026-05-05 21:14 39.86012 -104.67078 6880 ft 222 kts 11°
2026-05-05 21:15 39.87503 -104.67461 8140 ft 225 kts 329°
2026-05-05 21:15 39.88539 -104.69029 9043 ft 243 kts 290°
2026-05-05 21:15 39.88692 -104.71292 9563 ft 264 kts 251°
2026-05-05 21:15 39.87746 -104.73316 10439 ft 265 kts 221°
2026-05-05 21:16 39.86474 -104.75038 11642 ft 263 kts 231°
2026-05-05 21:16 39.85461 -104.77010 12941 ft 261 kts 241°
2026-05-05 21:16 39.84694 -104.79139 14222 ft 258 kts 249°
2026-05-05 21:16 39.84106 -104.81339 15314 ft 258 kts 253°
2026-05-05 21:17 39.83622 -104.83610 16316 ft 263 kts 256°
2026-05-05 21:17 39.83190 -104.85976 17039 ft 278 kts 258°
2026-05-05 21:17 39.82768 -104.88538 17453 ft 301 kts 258°
2026-05-05 21:17 39.82337 -104.91304 17869 ft 323 kts 259°
2026-05-05 21:18 39.81888 -104.94264 18235 ft 343 kts 259°
2026-05-05 21:18 39.81416 -104.97400 18552 ft 363 kts 259°
2026-05-05 21:18 39.80927 -105.00663 18883 ft 380 kts 259°
2026-05-05 21:18 39.80412 -105.04103 19181 ft 396 kts 259°
2026-05-05 21:19 39.79877 -105.07674 19616 ft 407 kts 259°
2026-05-05 21:19 39.79330 -105.11324 20214 ft 413 kts 259°
2026-05-05 21:19 39.78777 -105.15003 20824 ft 418 kts 259°
2026-05-05 21:19 39.78213 -105.18741 21456 ft 423 kts 259°
2026-05-05 21:20 39.77646 -105.22500 22049 ft 427 kts 259°
2026-05-05 21:20 39.77058 -105.26304 22650 ft 431 kts 258°
2026-05-05 21:20 39.76338 -105.30117 23228 ft 436 kts 256°
2026-05-05 21:20 39.75559 -105.33944 23748 ft 440 kts 255°
2026-05-05 21:21 39.74763 -105.37803 24199 ft 444 kts 255°
2026-05-05 21:21 39.73960 -105.41704 24688 ft 448 kts 255°
2026-05-05 21:21 39.73155 -105.45619 25164 ft 451 kts 255°
2026-05-05 21:21 39.72344 -105.49557 25715 ft 451 kts 255°
2026-05-05 21:22 39.71536 -105.53486 25829 ft 449 kts 255°
2026-05-05 21:22 39.70731 -105.57401 25845 ft 450 kts 256°
2026-05-05 21:22 39.69926 -105.61329 25844 ft 451 kts 256°
2026-05-05 21:22 39.69121 -105.65263 25763 ft 451 kts 255°
2026-05-05 21:23 39.68321 -105.69203 25769 ft 452 kts 255°
2026-05-05 21:23 39.67526 -105.73148 25770 ft 452 kts 256°
2026-05-05 21:23 39.66731 -105.77095 25773 ft 452 kts 256°
2026-05-05 21:23 39.65936 -105.81041 25716 ft 452 kts 256°
2026-05-05 21:24 39.65144 -105.84987 25715 ft 452 kts 256°
2026-05-05 21:24 39.64361 -105.88888 25710 ft 452 kts 256°
2026-05-05 21:24 39.63570 -105.92835 25666 ft 452 kts 256°
2026-05-05 21:24 39.62780 -105.96780 25666 ft 452 kts 256°
2026-05-05 21:25 39.61991 -106.00726 25648 ft 452 kts 256°
2026-05-05 21:25 39.61199 -106.04675 25655 ft 452 kts 256°
2026-05-05 21:25 39.60407 -106.08624 25642 ft 453 kts 256°
2026-05-05 21:25 39.59615 -106.12585 25646 ft 454 kts 256°
2026-05-05 21:26 39.58823 -106.16541 25646 ft 453 kts 256°
2026-05-05 21:26 39.58032 -106.20502 25651 ft 455 kts 256°
2026-05-05 21:26 39.57240 -106.24465 25642 ft 453 kts 256°
2026-05-05 21:26 39.56449 -106.28427 25645 ft 454 kts 256°
2026-05-05 21:27 39.55661 -106.32394 25641 ft 454 kts 256°
2026-05-05 21:27 39.54875 -106.36350 25655 ft 453 kts 256°
2026-05-05 21:27 39.54092 -106.40312 25663 ft 455 kts 256°
2026-05-05 21:27 39.53308 -106.44278 25659 ft 454 kts 256°
2026-05-05 21:28 39.52530 -106.48238 25657 ft 454 kts 256°
2026-05-05 21:28 39.51750 -106.52212 25663 ft 455 kts 256°
2026-05-05 21:28 39.50970 -106.56177 25656 ft 454 kts 256°
2026-05-05 21:28 39.50193 -106.60146 25663 ft 455 kts 256°
2026-05-05 21:29 39.49414 -106.64116 25652 ft 454 kts 256°
2026-05-05 21:29 39.48728 -106.68100 25651 ft 454 kts 261°
2026-05-05 21:29 39.48449 -106.72174 25650 ft 455 kts 269°
2026-05-05 21:29 39.48683 -106.76265 25656 ft 456 kts 277°
2026-05-05 21:30 39.49216 -106.80261 25649 ft 457 kts 279°
2026-05-05 21:30 39.49830 -106.84312 25655 ft 459 kts 280°
2026-05-05 21:30 39.50458 -106.88359 25801 ft 458 kts 280°
2026-05-05 21:30 39.51087 -106.92410 25805 ft 460 kts 281°
2026-05-05 21:31 39.51720 -106.96491 25809 ft 462 kts 280°
2026-05-05 21:31 39.52351 -107.00565 25807 ft 461 kts 280°
2026-05-05 21:31 39.52978 -107.04625 25793 ft 459 kts 280°
2026-05-05 21:31 39.53602 -107.08684 25788 ft 461 kts 281°
2026-05-05 21:32 39.54230 -107.12772 25771 ft 461 kts 281°
2026-05-05 21:32 39.54854 -107.16847 25760 ft 461 kts 281°
2026-05-05 21:32 39.55477 -107.20927 25749 ft 462 kts 281°
2026-05-05 21:32 39.56099 -107.25014 25737 ft 463 kts 281°
2026-05-05 21:33 39.56713 -107.29053 25721 ft 462 kts 281°
2026-05-05 21:33 39.57333 -107.33147 25719 ft 463 kts 281°
2026-05-05 21:33 39.57954 -107.37250 25737 ft 465 kts 281°
2026-05-05 21:33 39.58583 -107.41422 25753 ft 466 kts 281°
2026-05-05 21:34 39.59194 -107.45480 25773 ft 464 kts 281°
2026-05-05 21:34 39.59811 -107.49593 25790 ft 464 kts 281°
2026-05-05 21:34 39.60425 -107.53692 25800 ft 463 kts 281°
2026-05-05 21:34 39.61036 -107.57781 25809 ft 461 kts 281°
2026-05-05 21:35 39.61644 -107.61869 25819 ft 461 kts 281°
2026-05-05 21:35 39.62252 -107.65961 25824 ft 463 kts 281°
2026-05-05 21:35 39.62860 -107.70067 25830 ft 463 kts 281°
2026-05-05 21:35 39.63468 -107.74181 25825 ft 464 kts 281°
2026-05-05 21:36 39.64075 -107.78297 25820 ft 464 kts 281°
2026-05-05 21:36 39.64680 -107.82411 25732 ft 465 kts 281°
2026-05-05 21:36 39.65284 -107.86527 25731 ft 463 kts 281°
2026-05-05 21:36 39.65885 -107.90637 25739 ft 464 kts 281°
2026-05-05 21:37 39.66485 -107.94749 25735 ft 463 kts 281°
2026-05-05 21:37 39.67079 -107.98838 25738 ft 459 kts 281°
2026-05-05 21:37 39.67670 -108.02910 25753 ft 460 kts 281°
2026-05-05 21:37 39.68263 -108.07010 25756 ft 464 kts 281°
2026-05-05 21:38 39.68855 -108.11108 25754 ft 462 kts 281°
2026-05-05 21:38 39.69440 -108.15174 25759 ft 465 kts 280°
2026-05-05 21:38 39.70034 -108.19310 25754 ft 466 kts 280°
2026-05-05 21:38 39.70625 -108.23439 25755 ft 466 kts 280°
2026-05-05 21:39 39.71217 -108.27579 25771 ft 465 kts 280°
2026-05-05 21:39 39.71807 -108.31721 25771 ft 465 kts 280°
2026-05-05 21:39 39.72394 -108.35851 25770 ft 465 kts 280°
2026-05-05 21:39 39.72980 -108.39979 25774 ft 464 kts 280°
2026-05-05 21:40 39.73562 -108.44098 25756 ft 465 kts 280°
2026-05-05 21:40 39.74148 -108.48252 25770 ft 467 kts 280°
2026-05-05 21:40 39.74733 -108.52411 25762 ft 468 kts 280°
2026-05-05 21:40 39.75316 -108.56571 25778 ft 470 kts 280°
2026-05-05 21:41 39.75902 -108.60760 25776 ft 470 kts 280°
2026-05-05 21:41 39.76485 -108.64937 25776 ft 469 kts 280°
2026-05-05 21:41 39.77065 -108.69112 25777 ft 470 kts 280°
2026-05-05 21:41 39.77645 -108.73294 25773 ft 468 kts 280°
2026-05-05 21:42 39.78215 -108.77414 25771 ft 468 kts 280°
2026-05-05 21:42 39.78789 -108.81577 25768 ft 470 kts 281°
2026-05-05 21:42 39.79366 -108.85769 25771 ft 471 kts 281°
2026-05-05 21:42 39.79941 -108.89960 25767 ft 471 kts 281°
2026-05-05 21:43 39.80516 -108.94162 25768 ft 471 kts 281°
2026-05-05 21:43 39.81088 -108.98352 25760 ft 471 kts 281°
2026-05-05 21:43 39.81658 -109.02540 25760 ft 470 kts 281°
2026-05-05 21:43 39.82226 -109.06729 25761 ft 470 kts 281°
2026-05-05 21:44 39.82792 -109.10915 25761 ft 469 kts 281°
2026-05-05 21:44 39.83356 -109.15096 25751 ft 470 kts 281°
2026-05-05 21:44 39.83920 -109.19290 25756 ft 471 kts 281°
2026-05-05 21:44 39.84484 -109.23496 25755 ft 472 kts 281°
2026-05-05 21:45 39.85049 -109.27715 25749 ft 473 kts 281°
2026-05-05 21:45 39.85604 -109.31874 25749 ft 473 kts 281°
2026-05-05 21:45 39.86164 -109.36089 25749 ft 472 kts 281°
2026-05-05 21:45 39.86723 -109.40301 25746 ft 472 kts 281°
2026-05-05 21:46 39.87280 -109.44513 25746 ft 472 kts 281°
2026-05-05 21:46 39.87835 -109.48727 25743 ft 473 kts 282°
2026-05-05 21:46 39.88393 -109.52966 25739 ft 475 kts 281°
2026-05-05 21:46 39.88948 -109.57202 25737 ft 476 kts 281°
2026-05-05 21:47 39.89503 -109.61449 25739 ft 476 kts 281°
2026-05-05 21:47 39.90058 -109.65706 25738 ft 476 kts 281°
2026-05-05 21:47 39.90610 -109.69954 25733 ft 476 kts 281°
2026-05-05 21:47 39.91160 -109.74202 25733 ft 476 kts 281°
2026-05-05 21:48 39.91710 -109.78460 25733 ft 476 kts 281°
2026-05-05 21:48 39.92257 -109.82713 25729 ft 476 kts 282°
2026-05-05 21:48 39.92798 -109.86921 25726 ft 478 kts 282°
2026-05-05 21:48 39.93352 -109.91258 25730 ft 479 kts 282°
2026-05-05 21:49 39.93892 -109.95485 25736 ft 479 kts 282°
2026-05-05 21:49 39.94437 -109.99770 25736 ft 479 kts 282°
2026-05-05 21:49 39.94980 -110.04055 25734 ft 479 kts 282°
2026-05-05 21:49 39.95523 -110.08351 25733 ft 479 kts 282°
2026-05-05 21:50 39.96064 -110.12637 25733 ft 479 kts 281°
2026-05-05 21:50 39.96603 -110.16926 25733 ft 480 kts 282°
2026-05-05 21:50 39.97142 -110.21225 25735 ft 481 kts 282°
2026-05-05 21:50 39.97680 -110.25531 25749 ft 481 kts 282°
2026-05-05 21:51 39.98217 -110.29844 25744 ft 481 kts 282°
2026-05-05 21:51 39.98750 -110.34147 25744 ft 481 kts 282°
2026-05-05 21:51 39.99283 -110.38450 25744 ft 481 kts 282°
2026-05-05 21:51 39.99813 -110.42752 25746 ft 481 kts 282°
2026-05-05 21:52 40.00865 -110.51325 25760 ft 482 kts 281°
2026-05-05 21:52 40.01393 -110.55644 25765 ft 483 kts 281°
2026-05-05 21:52 40.01920 -110.59971 25761 ft 483 kts 281°
2026-05-05 21:53 40.02445 -110.64301 25767 ft 483 kts 281°
2026-05-05 21:53 40.02970 -110.68633 25762 ft 483 kts 281°
2026-05-05 21:53 40.03492 -110.72967 25772 ft 484 kts 281°
2026-05-05 21:53 40.04013 -110.77302 25788 ft 484 kts 281°
2026-05-05 21:54 40.04533 -110.81647 25777 ft 484 kts 281°
2026-05-05 21:54 40.05050 -110.85979 25784 ft 485 kts 281°
2026-05-05 21:54 40.05568 -110.90332 25790 ft 486 kts 281°
2026-05-05 21:54 40.06085 -110.94688 25797 ft 485 kts 281°
2026-05-05 21:55 40.06599 -110.99037 25791 ft 484 kts 281°
2026-05-05 21:55 40.07111 -111.03382 25811 ft 484 kts 281°
2026-05-05 21:55 40.07621 -111.07724 25803 ft 484 kts 281°
2026-05-05 21:55 40.07959 -111.10603 25801 ft 484 kts 281°
2026-05-05 21:56 40.08466 -111.14947 25810 ft 484 kts 281°
2026-05-05 21:56 40.08973 -111.19296 25819 ft 485 kts 282°
2026-05-05 21:56 40.09479 -111.23658 25820 ft 486 kts 282°
2026-05-05 21:56 40.09985 -111.28025 25828 ft 486 kts 281°
2026-05-05 21:57 40.10489 -111.32394 25830 ft 487 kts 281°
2026-05-05 21:57 40.10991 -111.36765 25834 ft 487 kts 281°
2026-05-05 21:57 40.11491 -111.41136 25840 ft 487 kts 281°
2026-05-05 21:57 40.11987 -111.45485 25840 ft 487 kts 281°
2026-05-05 21:58 40.12485 -111.49883 25845 ft 487 kts 281°
2026-05-05 21:58 40.12978 -111.54256 25840 ft 486 kts 281°
2026-05-05 21:58 40.13521 -111.58616 25922 ft 485 kts 285°
2026-05-05 21:58 40.14408 -111.62807 25679 ft 471 kts 292°
2026-05-05 21:59 40.15709 -111.66690 24775 ft 463 kts 299°
2026-05-05 21:59 40.17241 -111.70393 23801 ft 462 kts 301°
2026-05-05 21:59 40.18815 -111.74029 22925 ft 456 kts 301°
2026-05-05 21:59 40.20362 -111.77588 21734 ft 445 kts 301°
2026-05-05 22:00 40.21874 -111.81070 20333 ft 436 kts 301°
2026-05-05 22:00 40.23373 -111.84527 18818 ft 435 kts 300°
2026-05-05 22:00 40.24905 -111.87895 17411 ft 426 kts 306°
2026-05-05 22:00 40.26863 -111.90726 16049 ft 415 kts 321°
2026-05-05 22:01 40.29271 -111.92690 14789 ft 403 kts 336°
2026-05-05 22:01 40.31927 -111.93683 13537 ft 394 kts 351°
2026-05-05 22:01 40.34610 -111.93849 12104 ft 388 kts 359°
2026-05-05 22:01 40.37290 -111.93751 10851 ft 381 kts
2026-05-05 22:02 40.39915 -111.93617 10001 ft 365 kts
2026-05-05 22:02 40.42376 -111.93522 9468 ft 342 kts 359°
2026-05-05 22:02 40.44641 -111.93592 9101 ft 317 kts 355°
2026-05-05 22:02 40.46754 -111.93787 8915 ft 292 kts 353°
2026-05-05 22:03 40.48730 -111.94001 8912 ft 281 kts 352°
2026-05-05 22:03 40.50673 -111.94222 8926 ft 280 kts 353°
2026-05-05 22:03 40.52612 -111.94449 8931 ft 279 kts 351°
2026-05-05 22:03 40.54549 -111.94686 8846 ft 279 kts 352°
2026-05-05 22:04 40.56481 -111.94909 8534 ft 279 kts 352°
2026-05-05 22:04 40.58413 -111.95125 8114 ft 278 kts 353°
2026-05-05 22:04 40.60341 -111.95346 7681 ft 278 kts 352°
2026-05-05 22:04 40.62269 -111.95568 7281 ft 277 kts 353°
2026-05-05 22:05 40.64192 -111.95789 6913 ft 278 kts 354°
2026-05-05 22:05 40.66134 -111.96012 6545 ft 282 kts 354°
2026-05-05 22:05 40.68099 -111.96237 6178 ft 284 kts 354°
2026-05-05 22:05 40.70046 -111.96460 5806 ft 275 kts 353°
2026-05-05 22:06 40.71909 -111.96674 5429 ft 262 kts 353°
2026-05-05 22:06 40.73682 -111.96879 5024 ft 249 kts 354°
2026-05-05 22:06 40.75348 -111.97075 4623 ft 229 kts 354°
2026-05-05 22:06 40.76862 -111.97269 4382 ft 208 kts 354°
2026-05-05 22:07 40.78209 -111.97420 4229 ft 172 kts
2026-05-05 22:07 40.79238 -111.97515 4234 ft 128 kts 354°
2026-05-05 22:07 40.79951 -111.97604 4234 ft 76 kts 356°
2026-05-05 22:07 40.80166 -111.97713 4240 ft 16 kts 289°
2026-05-05 22:08 40.80168 -111.97764 4240 ft 0 kts 265°
2026-05-05 22:08 40.80168 -111.97788 4240 ft 6 kts 271°
2026-05-05 22:08 40.80201 -111.97844 4239 ft 11 kts 350°
2026-05-05 22:09 40.80290 -111.97862 4241 ft 15 kts 351°
2026-05-05 22:09 40.80381 -111.97879 4240 ft 7 kts 353°
2026-05-05 22:09 40.80426 -111.97925 4238 ft 11 kts 268°
2026-05-05 22:09 40.80365 -111.97964 4240 ft 12 kts 184°
2026-05-05 22:10 40.80275 -111.97957 4240 ft 15 kts 171°
2026-05-05 22:10 40.80158 -111.97942 4238 ft 20 kts 176°
2026-05-05 22:10 40.80005 -111.97922 4237 ft 24 kts 174°
2026-05-05 22:10 40.79825 -111.97902 4232 ft 29 kts 175°
2026-05-05 22:11 40.79617 -111.97876 4230 ft 30 kts 178°
2026-05-05 22:11 40.79403 -111.97867 4229 ft 31 kts 177°
2026-05-05 22:11 40.79191 -111.97865 4235 ft 30 kts 187°
2026-05-05 22:11 40.78985 -111.97867 4236 ft 30 kts 174°
2026-05-05 22:12 40.78919 -111.97857 4236 ft 0 kts 171°
2026-05-05 22:12 40.78808 -111.97842 4237 ft 37 kts 179°
2026-05-05 22:12 40.78589 -111.97804 4234 ft 20 kts 173°
2026-05-05 22:12 40.78493 -111.97809 4232 ft 14 kts 203°
2026-05-05 22:13 40.78478 -111.97915 4233 ft 11 kts 306°
2026-05-05 22:13 40.78543 -111.97942 4234 ft 9 kts 355°
2026-05-05 22:13 40.78549 -111.97943 4235 ft 0 kts 355°
2026-05-05 22:14 40.78557 -111.97944 4235 ft 0 kts 356°